SCP
0 0 0 0 0 0 0 0 0 0 0 0 0 0 0 0 0 0 0 0 0 0 0 0 0 0 0 0 0 0 0 0 0 0 0 0 0 0 0 0 0 0 0 0
0 0 0 0 0 0 0 0 0 0 0 0 0 0 0 0 0 0 0 0 0 0 0 0 0 0 0 0 0 0 0 0 0 0 0 0 0 0 0 0 0 0 0 0
0 0 0 0 0 0 0 0 0 0 0 0 0 0 0 0 0 0 0 0 0 0 0 0 0 0 0 0 0 0 0 0 0 0 0 0 0 0 0 0 0 0 0 0
0 0 0 0 0 0 0 0 0 0 0 0 0 0 0 0 0 0 0 0 0 0 0 0 0 0 0 0 0 0 0 0 0 0 0 0 0 0 0 0 0 0 0 0
0 0 0 0 0 0 0 0 0 0 0 0 0 0 0 0 0 0 0 0 0 0 0 0 0 0 0 0 0 0 0 0 0 0 0 0 0 0 0 0 0 0 0 0
0 0 0 0 0 0 0 0 0 0 0 0 0 0 0 0 0 0 0 0 0 0 0 0 0 0 0 0 0 0 0 0 0 0 0 0 0 0 0 0 0 0 0 0
0 0 0 0 0 0 0 0 0 0 0 0 0 0 0 0 0 0 0 0 0 0 0 0 0 0 0 0 0 0 0 0 0 0 0 0 0 0 0 0 0 0 0 0
0 0 0 0 0 0 0 0 0 0 0 0 0 0 0 0 0 0 0 0 0 0 0 0 0 0 0 0 0 0 0 0 0 0 0 0 0 0 0 0 0 0 0 0
0 0 0 0 0 0 0 0 0 0 0 0 0 0 0 0 0 0 0 0 0 0 0 0 0 0 0 0 0 0 0 0 0 0 0 0 0 0 0 0 0 0 0 0
0 0 0 0 0 0 0 0 0 0 0 0 0 0 0 0 0 0 0 0 0 0 0 0 0 0 0 0 0 0 0 0 0 0 0 0 0 0 0 0 0 0 0 0
0 0 0 0 0 0 0 0 0 0 0 0 0 0 0 0 0 0 0 0 0 0 0 0 0 0 0 0 0 0 0 0 0 0 0 0 0 0 0 0 0 0 0 0
0 0 0 0 0 0 0 0 0 0 0 0 0 0 0 0 0 0 0 0 0 0 0 0 0 0 0 0 0 0 0 0 0 0 0 0 0 0 0 0 0 0 0 0
0 0 0 0 0 0 0 0 0 0 0 0 0 0 0 -0 -0 -0 -0 -0 0 0 0 0 0 0 0 0 0 0 0 0 0 0 0 0 0 0 0 0 0 0 0 0
0 0 0 0 0 0 0 0 0 0 0 0 0 0 -0 -0 -0 -0 -0 -0 -0 -0 -0 -0 0 0 0 0 0 0 0 0 0 0 0 0 0 0 0 0 0 0 0 0
0 0 0 0 0 0 0 0 0 0 0 0 0 0 -0 -0 -0 -0 -0 -0 -0 -0 -0 -0 -0 -0 -0 0 0 0 0 0 0 0 0 0 0 0 0 0 0 0 0 0
0 0 0 0 0 0 0 0 0 0 0 0 0 -0 -0 -0 -0 -0 -0 -0 0 -0 -0 -0 -0 -0 -0 0 0 0 0 0 0 0 0 0 0 0 0 0 0 0 0 0
0 0 0 0 0 0 0 0 0 0 0 0 0 0 0 -0 -0 -0 -0 -0 -0 -0 -0 0 0 0 0 0 0 0 0 0 0 0 0 0 0 0 0 0 0 0 0 0
0 0 0 0 0 0 0 0 0 0 0 0 0 0 0 -0 -0 -0 -0 -0 -0 -0 -0 0 0 0 0 0 0 0 0 0 0 0 0 0 0 0 0 0 0 0 0 0
0 0 0 0 0 0 0 0 0 0 0 0 0 0 0 -0 0 0 0 0 0 0 0 0 0 0 0 0 0 0 0 0 0 0 0 0 0 0 0 0 0 0 0 0
0 0 0 0 0 0 0 0 0 0 0 0 0 0 0 -0 0 0 0 0 0 0 0 0 0 0 0 0 0 0 0 0 0 0 0 0 0 0 0 0 0 0 0 0
0 0 0 0 0 0 0 0 0 0 0 0 0 0 0 0 0 0 0 0 0 0 0 0 0 0 0 0 0 0 0 0 0 0 0 0 0 0 0 0 0 0 0 0
0 0 0 0 0 0 0 0 0 0 0 0 0 0 0 0 0 0 0 0 0 0 0 0 0 0 0 0 0 0 0 0 0 0 0 0 0 0 0 0 0 0 0 0
0 0 0 0 0 0 0 0 0 0 0 0 0 0 0 0 0 0 0 0 0 0 0 0 0 0 0 0 0 0 0 0 0 0 0 0 0 0 0 0 0 0 0 0
0 0 0 0 0 0 0 0 0 0 0 0 0 0 0 0 0 0 0 0 0 0 0 0 0 0 0 0 0 0 0 0 0 0 0 0 0 0 0 0 0 0 0 0
0 0 0 0 0 0 0 0 0 0 0 0 0 0 0 0 0 0 0 0 0 0 0 0 0 0 0 0 0 0 0 0 0 0 0 0 0 0 0 0 0 0 0 0
0 0 0 0 0 0 0 0 0 0 0 0 0 0 0 0 0 0 0 0 0 0 0 0 0 0 0 0 0 0 0 0 0 0 0 0 0 0 0 0 0 0 0 0
0 0 0 0 0 0 0 0 0 0 0 0 0 0 0 0 0 0 0 0 0 0 0 0 0 0 0 0 0 0 0 0 0 0 0 0 0 0 0 0 0 0 0 0
Wind_Speed_500mb
3 7 4 7 7 26 25 10 16 8 18 12 18 21 30 16 10 15 20 23 18 22 23 22 22 21 22 24 24 24 21 20 20 23 22 19 15 16 15 12 13 13 10 11
4 6 9 6 10 11 24 18 14 6 15 16 6 12 12 13 14 17 18 19 20 21 27 28 27 28 23 23 27 27 23 23 27 26 24 20 19 21 17 14 16 18 17 19
5 2 1 13 21 32 11 10 19 21 18 7 2 7 15 13 8 6 13 20 21 26 31 34 34 32 31 27 26 29 29 29 32 34 32 28 28 29 25 24 28 26 26 27
5 3 3 11 1 3 24 10 23 5 9 10 8 13 10 11 7 7 15 24 26 30 32 32 36 35 32 32 33 32 31 33 38 41 41 39 41 39 35 36 38 37 35 35
8 6 12 3 7 12 13 14 25 33 7 9 14 5 12 20 10 13 21 24 27 32 35 35 35 36 34 30 32 35 35 35 37 43 48 49 51 50 47 49 49 48 47 46
5 7 12 12 7 13 7 10 5 13 14 13 22 2 7 21 15 18 21 23 26 27 28 31 29 30 31 30 30 31 33 35 38 42 47 51 52 55 57 59 62 61 61 58
5 2 15 10 8 14 10 11 7 9 21 28 10 10 14 11 12 15 17 18 20 22 25 28 28 27 27 30 30 32 32 33 35 37 42 46 52 54 55 59 64 67 69 67
6 4 15 14 11 12 7 9 12 14 18 19 12 11 8 7 8 9 13 16 17 19 22 24 27 28 28 31 32 33 34 34 34 35 38 39 43 46 49 53 59 63 67 70
13 9 5 29 5 9 10 10 14 12 15 14 15 13 9 4 3 7 11 14 17 19 21 24 27 30 31 32 34 34 33 33 34 34 34 36 39 40 41 44 49 54 58 63
4 4 9 20 35 13 17 8 12 13 17 16 15 12 7 4 1 6 10 15 19 20 22 24 27 30 32 35 36 36 35 33 33 33 32 30 32 35 37 38 40 43 45 48
6 9 6 25 30 32 25 18 20 21 18 16 15 12 8 4 3 8 13 17 22 25 26 27 29 31 34 35 37 37 36 36 35 34 34 33 30 32 33 30 31 36 38 39
10 15 7 7 12 39 37 31 25 24 23 19 15 11 8 6 9 13 17 21 24 26 27 29 31 33 34 35 37 38 36 36 37 38 37 35 36 29 22 29 31 30 31 31
6 8 17 12 9 31 38 30 26 24 21 20 17 13 11 10 13 18 22 25 28 30 31 33 34 34 35 36 37 37 36 36 36 37 36 37 37 37 38 20 24 24 24 28
28 22 15 23 17 37 35 32 30 29 27 23 19 18 16 15 16 17 20 24 27 30 32 35 35 34 35 36 37 38 36 35 35 34 34 33 33 34 34 37 33 25 20 22
25 33 21 16 20 38 37 36 35 33 29 27 23 17 12 12 12 15 19 23 27 30 32 35 36 33 34 34 35 36 36 34 33 30 30 31 32 30 30 29 29 29 22 18
26 25 17 21 31 39 40 39 39 37 32 29 21 13 8 6 9 15 20 25 29 30 31 32 35 37 37 36 34 32 32 33 33 32 29 27 27 26 26 26 28 29 28 31
28 24 26 28 35 42 44 40 36 31 30 26 17 10 3 4 10 17 23 27 31 33 36 35 37 39 38 37 36 34 31 30 29 27 26 26 27 28 29 31 32 32 34 35
35 24 19 27 36 40 43 41 36 33 27 19 14 7 5 11 15 19 24 27 32 34 36 38 40 41 40 38 36 35 34 33 32 30 27 26 28 30 33 35 37 39 38 36
30 13 7 17 22 33 38 37 31 26 22 17 11 10 13 15 21 24 30 33 35 41 37 39 40 43 43 43 42 39 37 36 35 34 33 32 33 35 38 41 42 43 45 48
19 15 11 19 27 34 34 30 27 22 19 14 15 18 21 20 27 30 36 42 41 44 46 44 43 42 43 42 44 44 43 42 41 39 39 39 41 42 43 45 48 50 51 53
8 10 12 24 31 30 27 23 19 13 16 20 25 28 31 32 32 38 44 50 50 46 53 51 49 48 48 48 48 47 46 46 46 46 47 47 48 48 49 51 53 55 58 60
3 9 17 22 22 19 16 14 13 16 23 31 36 40 41 44 44 46 50 58 57 55 54 55 54 54 55 55 53 51 50 51 51 51 52 52 54 56 57 59 62 63 64 66
13 13 12 10 7 8 13 16 21 30 37 40 42 44 48 50 51 56 60 58 64 64 66 65 61 61 60 59 57 55 54 54 54 55 56 56 57 59 62 64 67 71 72 74
9 5 2 9 15 20 26 26 36 43 46 46 49 50 54 57 58 57 63 67 70 73 74 71 66 64 61 61 59 58 57 57 58 57 58 59 60 62 66 70 74 75 78 80
5 10 17 24 31 35 36 39 44 45 48 51 52 52 52 56 65 70 73 76 76 76 77 69 65 63 62 61 60 58 58 58 56 55 56 58 60 65 69 74 78 81 82 82
21 26 30 34 39 42 46 51 55 56 58 63 62 61 61 65 69 73 75 75 75 73 72 68 64 61 59 58 57 56 56 55 53 51 56 59 62 68 74 78 81 83 83 80
30 32 33 34 35 40 43 46 50 53 54 59 68 65 65 66 67 68 68 68 66 64 61 58 55 53 52 51 51 49 48 47 47 52 55 60 67 73 77 80 81 79 75 68
Wind_Direction_500mb
75 85 87 172 176 185 204 182 189 239 202 229 220 223 229 252 237 258 259 258 289 324 329 316 307 305 306 292 278 273 277 276 272 265 260 256 259 257 250 247 248 244 234 238
40 33 45 252 202 222 232 232 269 124 274 216 199 188 205 208 258 266 264 276 280 305 323 321 314 307 304 304 297 278 268 267 267 265 260 259 256 253 250 245 245 246 247 252
242 10 1 300 215 206 199 200 207 219 229 174 219 208 199 227 250 246 292 300 298 301 316 316 312 311 307 298 292 293 274 265 263 263 262 260 258 257 254 251 251 255 256 260
145 22 313 244 266 261 217 227 222 288 230 185 182 149 195 177 216 265 297 313 313 311 311 308 308 308 307 300 292 284 283 270 261 262 262 259 258 257 255 255 256 257 259 263
142 196 290 282 237 162 169 274 207 218 188 179 134 128 236 207 254 294 311 310 309 314 314 314 311 310 308 301 294 289 283 278 275 272 269 266 263 262 260 258 259 261 262 262
123 149 217 242 257 197 148 297 236 183 168 152 148 141 253 192 261 299 302 308 315 314 314 315 313 313 313 311 305 300 294 288 283 278 276 274 272 268 264 262 262 263 263 265
153 206 287 242 213 153 91 242 179 172 174 166 176 175 155 228 277 290 306 316 320 318 320 323 325 326 323 320 316 313 309 303 297 292 286 281 277 274 272 269 266 265 265 265
115 128 269 158 120 169 207 151 151 135 145 165 175 186 198 232 266 289 311 320 323 326 331 333 331 332 330 325 323 319 317 313 307 301 296 293 287 282 277 275 273 271 270 268
185 211 228 194 206 204 151 163 180 178 169 165 165 167 167 196 278 314 323 327 335 337 340 338 337 337 337 333 330 328 325 320 315 312 308 302 297 293 289 284 282 281 280 279
70 273 233 228 225 218 201 206 185 182 176 171 167 159 159 156 310 330 338 342 347 346 345 344 341 340 339 336 334 333 333 331 326 323 319 317 309 304 301 298 293 290 291 292
270 278 307 260 236 225 210 203 189 180 175 170 162 155 146 127 32 7 1 357 354 352 351 347 344 342 340 338 336 336 338 338 336 333 331 328 324 320 310 308 306 305 303 301
215 212 196 231 279 213 204 198 191 183 170 165 159 153 138 100 55 35 23 15 8 359 354 349 345 343 342 340 339 339 341 341 342 342 340 338 334 330 325 311 304 297 283 278
253 265 228 257 233 205 201 195 185 177 172 162 159 152 131 97 68 48 32 20 11 4 360 355 349 345 342 341 341 341 341 341 343 342 344 344 343 340 337 340 329 320 309 295
249 245 230 222 217 201 201 191 186 180 174 167 158 143 118 91 62 40 23 12 5 2 359 357 352 344 339 337 336 334 336 338 339 341 343 346 347 348 347 345 349 348 333 317
228 219 239 242 202 189 191 189 182 179 174 168 160 143 113 75 40 17 7 1 355 354 353 353 349 343 337 335 332 330 329 332 334 337 339 344 347 348 351 352 352 356 356 338
216 217 230 216 199 191 188 187 184 177 175 172 164 151 120 64 15 358 353 353 351 351 347 346 346 343 339 338 336 333 330 328 327 329 331 337 337 341 344 346 351 350 348 342
215 215 211 207 204 199 197 191 182 179 178 177 177 172 169 345 347 348 348 348 348 346 343 341 343 341 339 336 333 333 332 330 325 326 331 333 335 338 337 340 340 340 339 337
233 258 283 256 215 199 190 184 183 184 184 188 198 209 274 318 330 336 336 336 336 339 336 336 336 337 335 331 328 327 324 322 319 318 317 319 322 324 327 328 327 325 324 324
222 252 287 212 216 200 187 184 183 183 193 204 222 262 284 307 316 322 322 324 325 323 328 327 327 330 332 329 328 322 318 314 311 309 307 308 310 314 316 316 316 316 316 317
214 233 258 196 183 185 182 179 187 196 212 237 266 282 295 305 301 308 309 314 317 315 314 314 316 318 320 322 321 318 314 310 305 302 298 299 303 307 309 310 310 310 310 311
194 249 202 176 172 174 178 189 202 220 252 273 284 291 296 296 295 298 302 306 320 312 308 308 308 308 309 311 312 311 306 302 299 298 296 296 297 300 303 307 308 308 307 307
96 145 152 157 165 175 192 218 245 268 284 289 290 292 295 296 296 294 299 304 313 310 308 307 305 301 301 302 303 302 300 298 296 293 292 293 295 299 302 305 307 308 307 307
107 125 140 154 189 237 266 278 287 288 288 290 290 290 291 292 295 299 304 310 307 306 305 305 301 297 295 293 294 294 293 292 292 292 292 292 293 296 299 303 305 306 306 307
113 125 227 278 283 284 288 295 287 287 289 289 289 290 290 292 291 297 301 301 301 301 300 300 297 293 289 288 288 288 288 289 290 291 292 293 294 295 298 301 303 305 306 306
324 300 295 291 291 296 295 294 292 292 290 290 289 287 290 295 296 299 298 299 299 298 298 298 294 290 286 284 285 286 288 289 291 292 293 292 292 294 297 302 304 306 306 306
305 304 303 302 302 301 298 297 298 300 299 297 295 295 297 297 298 299 300 300 299 299 296 294 290 285 283 283 284 287 289 290 290 291 290 290 294 298 302 304 305 306 306 306
307 307 305 305 301 300 300 299 299 300 300 299 298 302 302 303 304 305 306 306 305 302 298 294 290 286 286 286 287 289 290 290 289 290 293 297 300 303 305 306 307 308 308 309
Wind_Speed_850mb
3 7 4 7 7 26 25 10 16 8 18 12 18 21 30 16 10 15 20 23 18 22 23 22 22 21 22 24 24 24 21 20 20 23 22 19 15 16 15 12 13 13 10 11
4 6 9 6 10 11 24 18 14 6 15 16 6 12 12 13 14 17 18 19 20 21 27 28 27 28 23 23 27 27 23 23 27 26 24 20 19 21 17 14 16 18 17 19
5 2 1 13 21 32 11 10 19 21 18 7 2 7 15 13 8 6 13 20 21 26 31 34 34 32 31 27 26 29 29 29 32 34 32 28 28 29 25 24 28 26 26 27
5 3 3 11 1 3 24 10 23 5 9 10 8 13 10 11 7 7 15 24 26 30 32 32 36 35 32 32 33 32 31 33 38 41 41 39 41 39 35 36 38 37 35 35
8 6 12 3 7 12 13 14 25 33 7 9 14 5 12 20 10 13 21 24 27 32 35 35 35 36 34 30 32 35 35 35 37 43 48 49 51 50 47 49 49 48 47 46
5 7 12 12 7 13 7 10 5 13 14 13 22 2 7 21 15 18 21 23 26 27 28 31 29 30 31 30 30 31 33 35 38 42 47 51 52 55 57 59 62 61 61 58
5 2 15 10 8 14 10 11 7 9 21 28 10 10 14 11 12 15 17 18 20 22 25 28 28 27 27 30 30 32 32 33 35 37 42 46 52 54 55 59 64 67 69 67
6 4 15 14 11 12 7 9 12 14 18 19 12 11 8 7 8 9 13 16 17 19 22 24 27 28 28 31 32 33 34 34 34 35 38 39 43 46 49 53 59 63 67 70
13 9 5 29 5 9 10 10 14 12 15 14 15 13 9 4 3 7 11 14 17 19 21 24 27 30 31 32 34 34 33 33 34 34 34 36 39 40 41 44 49 54 58 63
4 4 9 20 35 13 17 8 12 13 17 16 15 12 7 4 1 6 10 15 19 20 22 24 27 30 32 35 36 36 35 33 33 33 32 30 32 35 37 38 40 43 45 48
6 9 6 25 30 32 25 18 20 21 18 16 15 12 8 4 3 8 13 17 22 25 26 27 29 31 34 35 37 37 36 36 35 34 34 33 30 32 33 30 31 36 38 39
10 15 7 7 12 39 37 31 25 24 23 19 15 11 8 6 9 13 17 21 24 26 27 29 31 33 34 35 37 38 36 36 37 38 37 35 36 29 22 29 31 30 31 31
6 8 17 12 9 31 38 30 26 24 21 20 17 13 11 10 13 18 22 25 28 30 31 33 34 34 35 36 37 37 36 36 36 37 36 37 37 37 38 20 24 24 24 28
28 22 15 23 17 37 35 32 30 29 27 23 19 18 16 15 16 17 20 24 27 30 32 35 35 34 35 36 37 38 36 35 35 34 34 33 33 34 34 37 33 25 20 22
25 33 21 16 20 38 37 36 35 33 29 27 23 17 12 12 12 15 19 23 27 30 32 35 36 33 34 34 35 36 36 34 33 30 30 31 32 30 30 29 29 29 22 18
26 25 17 21 31 39 40 39 39 37 32 29 21 13 8 6 9 15 20 25 29 30 31 32 35 37 37 36 34 32 32 33 33 32 29 27 27 26 26 26 28 29 28 31
28 24 26 28 35 42 44 40 36 31 30 26 17 10 3 4 10 17 23 27 31 33 36 35 37 39 38 37 36 34 31 30 29 27 26 26 27 28 29 31 32 32 34 35
35 24 19 27 36 40 43 41 36 33 27 19 14 7 5 11 15 19 24 27 32 34 36 38 40 41 40 38 36 35 34 33 32 30 27 26 28 30 33 35 37 39 38 36
30 13 7 17 22 33 38 37 31 26 22 17 11 10 13 15 21 24 30 33 35 41 37 39 40 43 43 43 42 39 37 36 35 34 33 32 33 35 38 41 42 43 45 48
19 15 11 19 27 34 34 30 27 22 19 14 15 18 21 20 27 30 36 42 41 44 46 44 43 42 43 42 44 44 43 42 41 39 39 39 41 42 43 45 48 50 51 53
8 10 12 24 31 30 27 23 19 13 16 20 25 28 31 32 32 38 44 50 50 46 53 51 49 48 48 48 48 47 46 46 46 46 47 47 48 48 49 51 53 55 58 60
3 9 17 22 22 19 16 14 13 16 23 31 36 40 41 44 44 46 50 58 57 55 54 55 54 54 55 55 53 51 50 51 51 51 52 52 54 56 57 59 62 63 64 66
13 13 12 10 7 8 13 16 21 30 37 40 42 44 48 50 51 56 60 58 64 64 66 65 61 61 60 59 57 55 54 54 54 55 56 56 57 59 62 64 67 71 72 74
9 5 2 9 15 20 26 26 36 43 46 46 49 50 54 57 58 57 63 67 70 73 74 71 66 64 61 61 59 58 57 57 58 57 58 59 60 62 66 70 74 75 78 80
5 10 17 24 31 35 36 39 44 45 48 51 52 52 52 56 65 70 73 76 76 76 77 69 65 63 62 61 60 58 58 58 56 55 56 58 60 65 69 74 78 81 82 82
21 26 30 34 39 42 46 51 55 56 58 63 62 61 61 65 69 73 75 75 75 73 72 68 64 61 59 58 57 56 56 55 53 51 56 59 62 68 74 78 81 83 83 80
30 32 33 34 35 40 43 46 50 53 54 59 68 65 65 66 67 68 68 68 66 64 61 58 55 53 52 51 51 49 48 47 47 52 55 60 67 73 77 80 81 79 75 68
Wind_Direction_850mb
75 85 87 172 176 185 204 182 189 239 202 229 220 223 229 252 237 258 259 258 289 324 329 316 307 305 306 292 278 273 277 276 272 265 260 256 259 257 250 247 248 244 234 238
40 33 45 252 202 222 232 232 269 124 274 216 199 188 205 208 258 266 264 276 280 305 323 321 314 307 304 304 297 278 268 267 267 265 260 259 256 253 250 245 245 246 247 252
242 10 1 300 215 206 199 200 207 219 229 174 219 208 199 227 250 246 292 300 298 301 316 316 312 311 307 298 292 293 274 265 263 263 262 260 258 257 254 251 251 255 256 260
145 22 313 244 266 261 217 227 222 288 230 185 182 149 195 177 216 265 297 313 313 311 311 308 308 308 307 300 292 284 283 270 261 262 262 259 258 257 255 255 256 257 259 263
142 196 290 282 237 162 169 274 207 218 188 179 134 128 236 207 254 294 311 310 309 314 314 314 311 310 308 301 294 289 283 278 275 272 269 266 263 262 260 258 259 261 262 262
123 149 217 242 257 197 148 297 236 183 168 152 148 141 253 192 261 299 302 308 315 314 314 315 313 313 313 311 305 300 294 288 283 278 276 274 272 268 264 262 262 263 263 265
153 206 287 242 213 153 91 242 179 172 174 166 176 175 155 228 277 290 306 316 320 318 320 323 325 326 323 320 316 313 309 303 297 292 286 281 277 274 272 269 266 265 265 265
115 128 269 158 120 169 207 151 151 135 145 165 175 186 198 232 266 289 311 320 323 326 331 333 331 332 330 325 323 319 317 313 307 301 296 293 287 282 277 275 273 271 270 268
185 211 228 194 206 204 151 163 180 178 169 165 165 167 167 196 278 314 323 327 335 337 340 338 337 337 337 333 330 328 325 320 315 312 308 302 297 293 289 284 282 281 280 279
70 273 233 228 225 218 201 206 185 182 176 171 167 159 159 156 310 330 338 342 347 346 345 344 341 340 339 336 334 333 333 331 326 323 319 317 309 304 301 298 293 290 291 292
270 278 307 260 236 225 210 203 189 180 175 170 162 155 146 127 32 7 1 357 354 352 351 347 344 342 340 338 336 336 338 338 336 333 331 328 324 320 310 308 306 305 303 301
215 212 196 231 279 213 204 198 191 183 170 165 159 153 138 100 55 35 23 15 8 359 354 349 345 343 342 340 339 339 341 341 342 342 340 338 334 330 325 311 304 297 283 278
253 265 228 257 233 205 201 195 185 177 172 162 159 152 131 97 68 48 32 20 11 4 360 355 349 345 342 341 341 341 341 341 343 342 344 344 343 340 337 340 329 320 309 295
249 245 230 222 217 201 201 191 186 180 174 167 158 143 118 91 62 40 23 12 5 2 359 357 352 344 339 337 336 334 336 338 339 341 343 346 347 348 347 345 349 348 333 317
228 219 239 242 202 189 191 189 182 179 174 168 160 143 113 75 40 17 7 1 355 354 353 353 349 343 337 335 332 330 329 332 334 337 339 344 347 348 351 352 352 356 356 338
216 217 230 216 199 191 188 187 184 177 175 172 164 151 120 64 15 358 353 353 351 351 347 346 346 343 339 338 336 333 330 328 327 329 331 337 337 341 344 346 351 350 348 342
215 215 211 207 204 199 197 191 182 179 178 177 177 172 169 345 347 348 348 348 348 346 343 341 343 341 339 336 333 333 332 330 325 326 331 333 335 338 337 340 340 340 339 337
233 258 283 256 215 199 190 184 183 184 184 188 198 209 274 318 330 336 336 336 336 339 336 336 336 337 335 331 328 327 324 322 319 318 317 319 322 324 327 328 327 325 324 324
222 252 287 212 216 200 187 184 183 183 193 204 222 262 284 307 316 322 322 324 325 323 328 327 327 330 332 329 328 322 318 314 311 309 307 308 310 314 316 316 316 316 316 317
214 233 258 196 183 185 182 179 187 196 212 237 266 282 295 305 301 308 309 314 317 315 314 314 316 318 320 322 321 318 314 310 305 302 298 299 303 307 309 310 310 310 310 311
194 249 202 176 172 174 178 189 202 220 252 273 284 291 296 296 295 298 302 306 320 312 308 308 308 308 309 311 312 311 306 302 299 298 296 296 297 300 303 307 308 308 307 307
96 145 152 157 165 175 192 218 245 268 284 289 290 292 295 296 296 294 299 304 313 310 308 307 305 301 301 302 303 302 300 298 296 293 292 293 295 299 302 305 307 308 307 307
107 125 140 154 189 237 266 278 287 288 288 290 290 290 291 292 295 299 304 310 307 306 305 305 301 297 295 293 294 294 293 292 292 292 292 292 293 296 299 303 305 306 306 307
113 125 227 278 283 284 288 295 287 287 289 289 289 290 290 292 291 297 301 301 301 301 300 300 297 293 289 288 288 288 288 289 290 291 292 293 294 295 298 301 303 305 306 306
324 300 295 291 291 296 295 294 292 292 290 290 289 287 290 295 296 299 298 299 299 298 298 298 294 290 286 284 285 286 288 289 291 292 293 292 292 294 297 302 304 306 306 306
305 304 303 302 302 301 298 297 298 300 299 297 295 295 297 297 298 299 300 300 299 299 296 294 290 285 283 283 284 287 289 290 290 291 290 290 294 298 302 304 305 306 306 306
307 307 305 305 301 300 300 299 299 300 300 299 298 302 302 303 304 305 306 306 305 302 298 294 290 286 286 286 287 289 290 290 289 290 293 297 300 303 305 306 307 308 308 309